This demonstration page uses our WeatherBlox Daily Observations layout. Learn more.

Left ArrowRight Arrow

Hourly Observations for October 3, 2015

Temp ( °F °C ) Dew Point ( °F °C ) Humidity (%) Winds ( mph kmh ) Pressure ( in mb ) Visibility ( mi km ) Precip ( " mm )
3:41 am 03:41 Cloudy with Light Rain 58 14.4 56 13.3 93 93 NE 9 15 29.71 1006 8 13 0.01 0.25
3:53 am 03:53 Cloudy with Nearby Thunderstorms 59 15 56 13.3 90 90 NE 7 11 29.70 1006 10 16 0.01 0.25
4:11 am 04:11 Cloudy with Nearby Thunderstorms 59 15 56 13.3 90 90 E 7 11 29.71 1006 10 16 0.01 0.25
4:23 am 04:23 Cloudy with Nearby Thunderstorms 58 14.4 56 13.3 93 93 E 8 13 29.71 1006 3 4 0.09 2.29
4:31 am 04:31 Cloudy with Nearby Thunderstorms 58 14.4 56 13.3 93 93 ENE 7 11 29.71 1006 3 5 0.13 3.30
5:53 am 05:53 Cloudy with Rain 57 14 55 13 94 94 NE 8 13 29.71 1006 6 10 0.00 0.00
6:15 am 06:15 Cloudy with Rain 59 15 57 13.9 93 93 NNE 9 15 29.68 1005 6 10 0.04 1.02
6:24 am 06:24 Cloudy with Rain 59 15 57 14 94 94 ENE 5 7 29.71 1006 8 13 0.00 0.00
6:53 am 06:53 Cloudy with Heavy Rain 59 15 57 13.9 93 93 N 10 17 29.67 1005 4 6 0.14 3.56
7:24 am 07:24 Cloudy with Nearby Thunderstorms 59 15 57 14 94 94 NNE 12 19 29.71 1006 5 8 0.00 0.00
7:33 am 07:33 Cloudy with Nearby Thunderstorms 59 15 57 13.9 93 93 NNE 8 13 29.71 1006 8 13 0.06 1.52
7:39 am 07:39 Cloudy 59 15 57 13.9 93 93 NE 10 17 29.71 1006 10 16 0.06 1.52
7:53 am 07:53 Cloudy with Light Rain 59 15 57 13.9 93 93 NNE 5 7 29.69 1005 10 16 0.06 1.52
8:53 am 08:53 Cloudy 60 15.6 57 13.9 90 90 NE 5 7 29.68 1005 8 13 0.01 0.25
9:53 am 09:53 Cloudy with Light Rain 60 15.6 57 13.9 90 90 NE 8 13 29.69 1005 3 5 0.04 1.02
10:30 am 10:30 Mostly Sunny 61 16 57 14 88 88 ENE 9 15 29.71 1006 10 16 0.00 0.00
10:37 am 10:37 Cloudy with Light Rain 61 16.1 58 14.4 90 90 ENE 8 13 29.71 1006 3 5 0.00 0.03
10:53 am 10:53 Cloudy with Mist and Fog 61 16.1 58 14.4 90 90 NNE 5 7 29.70 1006 5 8 0.00 0.03
11:53 am 11:53 Cloudy with Mist and Fog 61 16.1 57 13.9 87 87 NE 12 19 29.70 1006 6 10 0.01 0.25
12:31 pm 12:31 Cloudy 62 16.7 58 14.4 86 86 NE 7 11 29.71 1006 8 13 0.00 0.00
12:44 pm 12:44 Cloudy 63 17 57 14 83 83 NE 10 17 29.71 1006 10 16 0.00 0.00
12:53 pm 12:53 Cloudy 63 17.2 58 14.4 84 84 NE 9 15 29.69 1005 10 16 0.00 0.00
1:11 pm 13:11 Cloudy with Mist and Fog 62 16.7 58 14.4 86 86 NNE 8 13 29.71 1006 5 8 0.00 0.00
1:28 pm 13:28 Cloudy 64 17.8 59 15 84 84 NE 7 11 29.65 1004 10 16 0.00 0.03
1:53 pm 13:53 Cloudy 65 18.3 58 14.4 78 78 NNE 8 13 29.67 1005 10 16 0.00 0.03
1:58 pm 13:58 Cloudy 64 18 57 14 78 78 NNE 12 19 29.65 1004 10 16 0.00 0.00
2:53 pm 14:53 Cloudy 65 18.3 58 14.4 78 78 ENE 9 15 29.66 1004 10 16 0.00 0.03
2:56 pm 14:56 Cloudy 64 18 57 14 78 78 ENE 9 15 29.65 1004 10 16 0.00 0.00
3:51 pm 15:51 Cloudy with Light Rain 63 17 59 15 88 88 NE 9 15 29.68 1005 3 4 0.00 0.03
3:53 pm 15:53 Cloudy with Light Rain 63 17.2 59 15 87 87 NE 7 11 29.66 1004 3 5 0.00 0.03
4:53 pm 16:53 Cloudy 65 18.3 60 15.6 84 84 NE 9 15 29.65 1004 10 16 0.00 0.03
5:00 pm 17:00 Cloudy 65 18.3 60 15.6 84 84 NE 7 11 29.65 1004 10 16 0.00 0.00
5:53 pm 17:53 Cloudy 65 18.3 60 15.6 84 84 NE 9 15 29.65 1004 10 16 0.00 0.00
6:53 pm 18:53 Cloudy 64 17.8 58 14.4 81 81 ENE 3 6 29.68 1005 10 16 0.00 0.00
7:53 pm 19:53 Cloudy with Light Rain 62 16.7 58 14.4 86 86 N 5 7 29.66 1004 10 16 0.03 0.76
8:00 pm 20:00 Cloudy with Light Rain 63 17 57 14 83 83 WNW 5 7 29.68 1005 10 16 0.00 0.00
8:24 pm 20:24 Cloudy with Light Rain 63 17 57 14 83 83 Calm 29.71 1006 10 16 0.00 0.00
8:53 pm 20:53 Cloudy with Light Rain 62 16.7 59 15 90 90 Calm 29.69 1006 10 16 0.01 0.25
9:53 pm 21:53 Cloudy 62 16.7 60 15.6 93 93 WNW 3 6 29.69 1005 10 16 0.00 0.03
10:53 pm 22:53 Cloudy 62 16.7 60 15.6 93 93 W 3 6 29.70 1006 9 14 0.00 0.00
11:11 pm 23:11 Cloudy 62 16.7 60 15.6 93 93 WNW 6 9 29.71 1006 10 16 0.00 0.00
11:31 pm 23:31 Cloudy 62 16.7 59 15 90 90 WNW 5 7 29.74 1007 10 16 0.00 0.00
11:53 pm 23:53 Cloudy with Mist and Fog 61 16.1 59 15 93 93 NW 6 9 29.71 1006 6 10 0.00 0.00

Powered by AerisWeather